Regional Weather Roundup
Issued by NWS State College, PA

Home | Current Version | Previous Version | Graphics & Text | Print | Product List | Glossary On
Versions: 1 2 3 4 5 6 7 8 9 10 11 12 13 14 15 16 17 18 19 20 21 22 23 24 25 26 27 28 29 30 31 32 33 34 35 36 37 38 39 40 41 42 43 44 45 46 47 48 49 50
000
ASUS41 KCTP 301210
RWRCTP

REGIONAL WEATHER ROUNDUP
NATIONAL WEATHER SERVICE STATE COLLEGE PA
800 AM EDT TUE AUG 30 2016

Note: "fair" indicates few or no clouds below 12,000 feet with no
significant weather and/or obstructions to visibility.

* = STATION THAT DOES NOT REPORT PRECIPITATION /E.G. RAIN...SNOW...ETC/
    THUNDER OR FOG.

PAZ002>004-007>009-013>016-020>023-029>032-301300-
WESTERN PENNSYLVANIA

CITY           SKY/WX    TMP DP  RH WIND       PRES   REMARKS
ERIE           FAIR      64  58  80 S3        30.19F
MEADVILLE      FAIR      63  59  87 CALM      30.22S
FRANKLIN*        N/A     57  54  88 E3        30.22F
NEW CASTLE     FAIR      57  55  93 CALM      30.21F
BEAVER COUNTY  SUNNY     63  57  82 CALM      30.21S
BUTLER*        NOT AVBL
PITTSBURGH INT FAIR      64  57  78 CALM      30.20S
PITTSBURGH     FAIR      64  58  80 NE3       30.20R
INDIANA*       SUNNY     61  59  94 CALM      30.24S
LATROBE        SUNNY     57  57 100 CALM      30.21S
WASHINGTON CO* FAIR      57  55  94 CALM      30.20S
$$

PAZ004>006-010>012-017>019-024>028-033>037-041-042-045-046-049>053-301300-
CENTRAL PENNSYLVANIA

CITY           SKY/WX    TMP DP  RH WIND       PRES   REMARKS
BRADFORD       FAIR      57  55  93 CALM      30.25S
DUBOIS         FAIR      62  57  83 NE3       30.23R
CLEARFIELD     NOT AVBL
JOHNSTOWN      FAIR      63  59  87 CALM      30.24S
ALTOONA        FAIR      62  61  96 CALM      30.23S
STATE COLLEGE  SUNNY     59  59 100 CALM      30.22S
WILLIAMSPORT   FAIR      64  59  83 CALM      30.20S
SELINSGROVE    FAIR      62  62 100 CALM      30.20F
FT INDIANTOWN  FAIR      67  60  78 E1        30.18S
CAPITAL CITY   FAIR      69  62  78 SW3       30.18S
HARRISBURG     FAIR      70  62  76 CALM      30.18R
YORK           FAIR      65  62  90 CALM      30.19R
$$

PAZ038>040-043-044-047-048-054-055-060>062-067>071-301300-
EASTERN PENNSYLVANIA

CITY           SKY/WX    TMP DP  RH WIND       PRES   REMARKS
SCRANTON       FAIR      61  55  81 E3        30.21S
MOUNT POCONO   FAIR      63  54  72 E3        30.23R
ALLENTOWN      FAIR      65  60  84 CALM      30.18S
QUAKERTOWN*    FAIR      64  59  82 CALM      30.19S
READING        FAIR      66  59  78 N5        30.18R
LANCASTER      FAIR      69  62  78 CALM      30.18R
COATESVILLE    FAIR      68  59  73 CALM      30.19R
POTTSTOWN      FAIR      67  60  78 CALM      30.19R
BLUE BELL      FAIR      68  59  73 NE5       30.16S
DOYLESTOWN     FAIR      67  60  78 NE3       30.16S
WILLOW GROVE   NOT AVBL
NORTH PHILA    FAIR      72  61  68 NE9       30.17S
PHILADELPHIA   FAIR      74  60  61 NE10      30.15S
$$




USA.gov is the U.S. government's official web portal to all federal, state and local government web resources and services.